Location: Breungeshain
(50.5000°N, 9.2000°E)
Time: 20:20:26
(UTC+00:00)

ISS - Visible Passes

Search period start: 22 September 2018 00:00
Search period end: 02 October 2018 00:00
Orbit: 403 x 408 km, 51.6° (Epoch: 23 September)

Date Brightness Start Highest point End Pass type
(mag) Time Alt. Az. Time Alt. Az. Time Alt. Az.
22 Sep -1.7 18:27:30 10° SSE 18:28:53 13° SE 18:28:53 13° SE visible
23 Sep -2.6 19:10:12 10° SW 19:12:21 29° S 19:12:21 29° S visible
24 Sep -2.5 18:18:48 10° SSW 18:21:32 24° SE 18:22:54 18° ESE visible
24 Sep -1.5 19:54:26 10° WSW 19:55:36 20° WSW 19:55:36 20° WSW visible
25 Sep -3.9 19:02:36 10° WSW 19:05:51 62° SSE 19:05:59 61° SE visible
26 Sep -3.3 18:10:52 10° SW 18:14:01 42° SSE 18:16:15 17° E visible
26 Sep -2.0 19:47:07 10° W 19:48:56 30° W 19:48:56 30° W visible
27 Sep -3.9 18:55:10 10° WSW 18:58:29 89° N 18:59:06 56° ENE visible
28 Sep -3.8 18:03:15 10° WSW 18:06:33 70° SSE 18:09:12 15° ENE visible
28 Sep -2.2 19:39:48 10° W 19:41:52 34° WNW 19:41:52 34° WNW visible
29 Sep -3.7 18:47:49 10° W 18:51:07 73° N 18:51:54 47° ENE visible
29 Sep -0.4 20:24:24 10° WNW 20:24:34 11° WNW 20:24:34 11° WNW visible
30 Sep -3.8 17:55:48 10° W 17:59:07 83° N 18:01:54 14° ENE visible
30 Sep -2.3 19:32:25 10° WNW 19:34:34 37° WNW 19:34:34 37° WNW visible
01 Oct -3.7 18:40:25 10° W 18:43:42 70° N 18:44:32 46° ENE visible
01 Oct -0.4 20:16:58 10° WNW 20:17:12 12° WNW 20:17:12 12° WNW visible
